Location: Arroyo de la Figueras
(41.3673°N, 0.6806°E)
Time: 01:36:18
(UTC+00:00)

Daily predictions for brighter satellites

Satellite Brightness Start Highest point End
(mag) Time Altitude Azimuth Time Altitude Azimuth Time Altitude Azimuth
Cosmos 1464 Rocket 4.4 00:08:47 55° ENE 00:08:47 55° ENE 00:14:09 10° NNE
Lacrosse 4 Rocket 3.6 00:13:01 24° NNE 00:13:01 24° NNE 00:14:44 10° NNE
Cosmos 2219 Rocket 2.9 00:06:14 10° NNW 00:11:13 49° NE 00:11:13 49° NE
Cosmos 968 Rocket 4.4 00:19:13 44° N 00:19:13 44° N 00:22:42 10° NNE
Cosmos 2322 Rocket 4.0 00:15:04 10° NW 00:17:43 21° WNW 00:17:43 21° WNW
COSMOS 2428 3.2 00:24:15 10° NNW 00:29:12 58° NNE 00:29:12 58° NNE
SL-16 R/B 4.2 00:28:37 22° E 00:30:55 27° ENE 00:36:02 10° N
Cosmos 2034 Rocket 4.2 00:35:41 65° ENE 00:35:41 65° ENE 00:41:24 10° NNE
Nadezhda 4 Rocket 4.3 00:29:15 10° N 00:35:18 60° ENE 00:35:18 60° ENE
Cosmos 2360 Rocket 3.7 00:30:23 10° NW 00:33:24 27° WNW 00:33:24 27° WNW
CZ-2D R/B 3.9 00:34:14 10° NE 00:38:05 23° E 00:38:05 23° E
GEOS 3 Rocket 4.3 00:38:39 10° NE 00:42:46 53° NE 00:42:46 53° NE
Cosmos 2297 Rocket 3.5 00:45:36 29° E 00:45:36 29° E 00:49:30 10° NE
Cosmos 2219 4.4 00:45:50 34° E 00:45:50 34° E 00:49:50 10° NE
Cosmos 2333 Rocket 2.8 00:43:57 10° NNW 00:48:11 50° NW 00:48:11 50° NW
Helios 1B rocket 4.4 00:46:52 10° N 00:48:49 27° N 00:48:49 27° N
Cosmos 44 Rocket 4.3 00:51:15 10° NNW 00:55:07 46° N 00:55:07 46° N
Cosmos 2237 Rocket 3.1 00:53:36 10° NNW 00:58:58 42° ENE 00:59:51 40° E
ATLAS 3B CENTAUR R/B 4.4 01:13:44 33° SE 01:13:44 33° SE 01:18:42 10° ESE
Meteor 1-12 Rocket 4.3 01:11:28 79° N 01:11:28 79° N 01:17:05 10° N
Timation 2 Rocket 3.9 01:14:34 82° NNW 01:14:34 82° NNW 01:20:29 10° NNE
In-Cosmos 22 4.3 01:14:04 10° N 01:19:15 72° NNE 01:19:15 72° NNE
SJ 16-02 3.3 01:25:10 22° E 01:25:10 22° E 01:27:59 10° NE
Cosmos 2227 Rocket 2.3 01:33:34 68° E 01:33:34 68° E 01:39:03 10° NNE
Meteor 2-13 Rocket 4.3 01:27:51 10° N 01:33:59 88° W 01:34:11 85° SSW
MOZ.5/SAFIR/RUBIN 5/SL-8 4.4 01:36:59 50° NNW 01:36:59 50° NNW 01:40:33 10° NNW
Cosmos 1538 Rocket 4.1 01:30:59 10° NNW 01:35:51 71° NE 01:35:51 71° NE
Cosmos 2195 Rocket 4.3 01:30:18 10° N 01:36:39 85° W 01:37:03 79° SSW
Resurs 1-4 Rocket 2.1 01:34:20 10° NNE 01:39:24 80° NE 01:39:24 80° NE
Cosmos 1674 4.5 01:37:45 10° N 01:39:47 30° N 01:39:47 30° N
NOSS 0 Rocket 4.1 01:39:13 10° NNW 01:44:40 55° W 01:44:40 55° W
Cosmos 2279 Rocket 4.1 01:44:46 56° SE 01:45:49 66° E 01:51:57 10° NNE
USA 215 3.1 01:43:53 10° NE 01:50:26 73° SE 01:51:29 62° S
Cosmos 2026 Rocket 3.8 01:44:37 10° N 01:50:42 78° W 01:51:08 73° SW
Cosmos 1634 Rocket 3.9 01:50:27 67° WSW 01:50:57 71° W 01:57:11 10° N
Cosmos 1627 Rocket 4.3 01:47:10 10° NNW 01:53:17 70° W 01:53:40 68° WSW
Cosmos 2082 3.9 01:53:29 55° SE 01:54:00 57° ESE 01:59:30 10° NNE
Cosmos 2219 Rocket 4.1 01:51:00 10° NW 01:52:54 17° WNW 01:52:54 17° WNW
Cosmos 2344 4.5 01:46:44 10° NW 01:56:43 88° WSW 02:10:44 10° SSE
IRAS Rocket 4.2 01:57:00 65° W 01:57:00 65° W 02:02:18 10° NNW
SL-4 R/B 3.9 01:58:02 17° NNW 01:59:39 23° NNE 02:02:28 10° ENE
Cosmos 2142 Rocket 4.4 02:00:56 64° SSW 02:01:57 79° W 02:08:23 10° N
Meteor 1-24 Rocket 4.0 02:01:34 10° N 02:06:59 59° ENE 02:08:55 37° SE
SL-16 R/B 2.8 02:02:05 10° NNW 02:07:42 55° ENE 02:12:33 14° SE
CBERS-1 4.1 02:03:22 10° NNE 02:08:28 67° ESE 02:09:09 60° SSE
Meteor 2-5 Rocket 3.6 02:05:05 10° N 02:10:45 85° E 02:11:59 56° SSE
Cosmos 1898 Rocket 4.2 02:11:42 40° SE 02:12:49 47° ESE 02:17:49 10° NNE
SL-16 R/B 2.7 02:13:43 51° WSW 02:14:09 52° W 02:20:17 10° NNW
ARIANE 5 R/B 3.7 02:11:04 10° NNE 02:15:54 37° E 02:18:02 26° SE
NPP 3.8 02:12:34 10° N 02:17:49 55° WNW 02:18:22 53° W
NOSS 3-1 (C) 3.7 02:17:24 41° SSE 02:18:35 48° ESE 02:24:21 10° NE
IDEFIX/ARIANE 42P 4.3 02:14:25 10° NE 02:18:41 25° E 02:21:55 14° SE
CZ-2D R/B 2.6 02:13:36 10° N 02:18:50 46° WNW 02:19:24 45° W
Cosmos 1680 Rocket 4.0 02:14:18 10° NNW 02:19:28 59° ENE 02:22:58 20° SE
USA 267 4.3 02:15:15 10° E 02:21:22 44° NNE 02:27:29 10° NW
AQUA 4.0 02:19:39 10° N 02:24:17 54° WNW 02:24:26 54° W
Cosmos 990 Rocket 4.1 02:23:20 51° SSE 02:24:27 66° ESE 02:29:36 10° NNE
Cosmos 1766 4.2 02:26:32 38° NW 02:26:32 38° NW 02:29:26 10° N
Cosmos 1607 4.2 02:19:47 10° NNW 02:26:15 73° NE 02:32:42 10° SE
Cosmos 2263 Rocket 3.9 02:23:54 16° SE 02:26:59 25° ESE 02:31:26 10° NE
ADEOS II 2.0 02:21:52 10° NNE 02:27:10 87° ESE 02:28:23 55° S
Meteor 1-22 Rocket 3.9 02:27:12 60° SSW 02:28:11 81° W 02:33:30 10° N
Cosmos 2297 Rocket 3.0 02:27:24 34° W 02:28:29 38° WNW 02:33:44 10° N
Cosmos 2219 4.2 02:27:45 30° W 02:28:52 32° WNW 02:33:53 10° N
IRS-1D 3.4 02:25:56 10° N 02:30:58 73° WNW 02:31:54 57° SW
Okean 1-7 Rocket 3.8 02:29:11 10° N 02:33:35 65° E 02:35:04 39° SSE
IRS-1C 4.2 02:31:25 10° NNE 02:36:47 76° ESE 02:38:43 41° S
Meteor 1-28 Rocket 4.0 02:36:22 33° SE 02:37:43 50° ENE 02:41:25 10° N
Okean 1 Rocket 4.4 02:38:14 26° WNW 02:38:14 26° WNW 02:41:26 10° NNW
Cosmos 1626 2.6 02:35:57 10° NNW 02:38:56 50° NW 02:38:56 50° NW
Cosmos 2266 Rocket 4.0 02:34:17 10° N 02:40:42 83° E 02:45:02 21° S
Cosmos 1655 Rocket 3.9 02:35:17 10° N 02:41:32 74° W 02:44:28 33° S
Cosmos 1470 2.7 02:41:43 66° SSE 02:42:12 78° E 02:46:10 10° N
Cosmos 2237 Rocket 3.4 02:38:06 10° NW 02:41:37 25° W 02:41:37 25° W
CZ-4B R/B 3.7 02:39:38 10° N 02:44:11 45° WNW 02:44:51 42° W
SL-08 R/B 3.4 02:43:55 24° SSE 02:46:58 80° ENE 02:51:57 10° N
Cosmos 923 Rocket 4.1 02:44:19 10° NNW 02:49:32 57° WSW 02:51:06 41° SSW
USA 229 DEB 3.6 02:48:33 34° SSW 02:51:35 75° ESE 02:58:22 10° NE
USA 229 3.6 02:48:39 34° SSW 02:51:40 74° ESE 02:58:26 10° NE
Cosmos 2098 Rocket 3.6 02:50:42 10° N 02:55:38 77° W 02:59:34 23° S
Cosmos 158 Rocket 4.0 02:52:02 10° NNW 02:57:21 64° WSW 03:00:33 24° S
NOSS 2-3 (C) 4.0 03:01:07 34° S 03:02:43 54° ESE 03:07:20 10° NE
NOSS 3-1 (A) 3.5 03:00:07 29° S 03:02:49 62° ESE 03:08:51 10° NE
SJ 16-02 2.3 03:02:10 30° W 03:02:54 31° WNW 03:06:51 10° N
ERBS 2.0 03:00:35 10° NW 03:03:53 75° SW 03:07:09 10° SE
SL-14 R/B 4.0 03:00:32 10° NNW 03:03:48 34° W 03:03:48 34° W
SL-23 DEB 4.1 03:03:33 10° WNW 03:09:47 66° SW 03:13:30 10° SE
Cosmos 858 Rocket 4.5 03:07:27 32° SSW 03:09:54 74° WNW 03:15:12 10° NNE
Cosmos 1455 Rocket 3.7 03:11:32 34° WSW 03:12:32 39° WNW 03:16:43 10° N
Cosmos 1943 4.4 03:09:04 10° NNW 03:14:26 44° ENE 03:19:45 10° SE
Cosmos 1758 3.5 03:13:24 39° SW 03:14:30 52° W 03:18:27 10° N
Cosmos 1809 Rocket 4.4 03:08:37 10° N 03:14:45 86° W 03:20:52 10° S
MSX 4.3 03:09:14 10° NNE 03:14:55 59° E 03:20:28 11° S
Cosmos 1626 Rocket 3.5 03:11:35 10° N 03:15:55 85° E 03:19:53 12° S
Cosmos 2227 Rocket 3.9 03:15:24 15° W 03:18:00 20° NW 03:22:05 10° N
Resurs 1-4 Rocket 4.1 03:16:11 10° NNW 03:18:43 14° WNW 03:20:28 12° W
Spot 4 Rocket 4.0 03:14:19 10° NNE 03:19:30 83° WNW 03:22:59 21° SSW
Meteor 1-21 Rocket 4.4 03:14:10 10° N 03:19:45 75° E 03:25:15 10° SSE
Landsat 5 4.0 03:19:32 10° SSE 03:23:18 55° ENE 03:27:13 10° N
SeaSat 1 2.9 03:18:53 10° NE 03:23:44 56° ESE 03:27:42 15° S
Cosmos 1461 4.0 03:23:26 24° W 03:25:18 34° NW 03:29:27 10° NNE
CZ-2C R/B 2.7 03:23:39 10° NNE 03:27:33 81° ESE 03:30:09 20° S
Cosmos 2227 4.2 03:24:44 21° SSW 03:28:45 88° WNW 03:34:34 10° NNE
CZ-2D R/B 3.5 03:25:10 10° N 03:29:09 57° WNW 03:31:10 26° SW
FALCON 9 DEB 4.2 03:27:18 10° NW 03:30:40 47° NNE 03:34:01 10° ESE
ATLAS CENTAUR R/B 3.7 03:27:41 10° SSE 03:30:41 19° ESE 03:33:34 10° ENE
Cosmos 1340 Rocket 3.7 03:29:56 26° WSW 03:31:08 31° WNW 03:34:43 10° N
ATLAS 3B CENTAUR R/B 3.8 03:27:04 19° WSW 03:32:34 30° SSW 03:37:38 10° SE
USA 215 4.2 03:27:09 10° NE 03:33:10 40° NNW 03:38:49 12° W
ERS-2 2.5 03:30:59 10° SSE 03:34:34 65° ENE 03:38:12 10° N
Cosmos 2228 4.4 03:31:26 10° SSE 03:35:28 39° E 03:39:33 10° NNE
Cosmos 724 4.4 03:31:10 10° NNW 03:37:14 85° ENE 03:43:22 10° SSE
Cosmos 1953 2.4 03:35:03 22° SSW 03:37:26 57° W 03:41:25 10° N
Meteor 2-21 4.4 03:31:48 10° NNW 03:37:47 65° W 03:43:46 10° S
SL-4 R/B 1.4 03:36:04 10° WNW 03:39:28 67° SW 03:42:51 10° SE
Cosmos 1726 2.5 03:38:38 24° SW 03:40:23 42° W 03:43:55 10° N
Cosmos 1908 3.5 03:38:42 10° S 03:42:35 72° E 03:46:30 10° NNE
Meteor 1-16 Rocket 4.1 03:38:16 10° S 03:43:36 87° WNW 03:49:06 10° N
Cosmos 2285 Rocket 4.2 03:39:00 10° S 03:45:16 73° ESE 03:51:34 10° NNE
H-2A R/B 1.9 03:44:50 10° S 03:48:56 64° WSW 03:53:01 10° NNW
Cosmos 2150 Rocket 4.1 03:45:01 10° SSW 03:50:09 79° ESE 03:55:22 10° NNE
Cosmos 1937 Rocket 4.4 03:47:07 17° WSW 03:50:28 33° WNW 03:55:16 10° N
SL-16 R/B 3.4 03:47:12 10° NW 03:51:19 21° W 03:54:15 14° SW
ARIANE 5 R/B 3.7 03:50:25 10° N 03:54:50 28° WNW 03:58:22 14° WSW
Cosmos 1825 Rocket 3.9 03:52:09 10° N 03:56:28 67° E 04:00:45 10° SSE
CZ-4C R/B 3.2 03:55:19 10° S 03:58:21 41° W 04:01:28 10° NNW
IDEFIX/ARIANE 42P 3.2 03:53:33 10° N 03:58:22 39° WNW 04:02:43 12° SW
Cosmos 1328 3.8 03:56:52 10° N 04:00:52 86° ENE 04:04:51 10° S
NOSS 2-3 (E) 4.3 03:57:58 15° WSW 04:01:14 43° NW 04:05:57 10° NNE
CZ-4B R/B 2.8 03:58:17 10° SE 04:01:26 42° ENE 04:04:32 10° N
USA 267 3.3 03:57:44 10° SE 04:04:11 63° SW 04:10:41 10° NW
ADEOS II 4.1 04:03:48 10° NNW 04:06:05 13° WNW 04:08:23 10° W
NOSS 3-1 (C) 4.5 04:04:48 10° WSW 04:09:39 31° NW 04:15:17 10° NNE
Cosmos 2263 Rocket 2.7 04:05:36 12° SW 04:10:35 45° WNW 04:15:56 10° NNE
Cosmos 1703 3.4 04:07:45 10° NNW 04:11:39 57° W 04:15:31 10° S
Cosmos 1553 Rocket 4.0 04:06:56 10° SSW 04:12:55 64° W 04:18:59 10° N
SAR-Lupe-4 3.8 04:13:03 10° SSE 04:16:36 75° ENE 04:20:12 10° N
OAO 3 Rocket 4.1 04:15:36 10° WSW 04:20:07 36° S 04:24:37 10° ESE
Cosmos 1606 Rocket 3.7 04:17:10 10° SSW 04:21:35 64° W 04:26:03 10° N
Cosmos 482 Debris 4.3 04:16:27 10° NW 04:21:46 90° SW 04:24:54 10° SE
Aureole 3 4.2 04:17:13 10° SSW 04:22:05 72° W 04:28:21 10° N
Cosmos 1300 3.0 04:20:07 10° S 04:23:53 69° E 04:27:42 10° NNE
SL-08 ROCKET BODY 4.4 04:18:59 10° NNW 04:25:04 73° W 04:30:59 10° S
Cosmos 1745 Rocket 4.0 04:18:50 10° N 04:25:08 77° W 04:31:20 10° S
CZ-2C R/B 2.3 04:20:47 10° N 04:25:19 63° WNW 04:29:52 10° SSW
Cosmos 1125 Rocket 3.5 04:20:52 10° SSW 04:26:05 78° WNW 04:31:22 10° NNE
Meteor 1-31 Rocket 3.8 04:26:15 10° NNE 04:30:01 49° E 04:33:44 10° S
Cosmos 1603 4.2 04:25:58 10° NW 04:31:11 37° WSW 04:36:22 10° S
